Location: Arpaise
(41.0333°N, 14.7333°E)
Time: 07:43:23
(UTC+00:00)

GEOS 3 Rocket - Pass Details

Date: 05 July 2020
Orbit: 771 x 848 km, 115.0° (Epoch: 05 August)

Event Time Altitude Azimuth Distance (km) Brightness Sun altitude
Rises 19:18:25 0° 41° (NE) 3,413 6.8 -7.3°
Reaches altitude 10° 19:20:52 10° 48° (NE) 2,476 6.1 -7.7°
Maximum altitude 19:26:00 44° 120° (ESE) 1,164 4.0 -8.4°
Drops below altitude 10° 19:31:05 10° 191° (SSW) 2,452 5.8 -9.1°
Sets 19:33:30 0° 198° (SSW) 3,377 6.6 -9.5°
